Regional Weather Roundup
Issued by NWS

Home | Current Version | Previous Version | Graphics & Text | Print | Product List | Glossary On
Versions: 1 2 3 4 5 6 7 8 9 10 11 12 13 14 15 16 17 18 19 20 21 22 23 24 25 26 27 28 29 30 31 32 33 34 35 36 37 38 39 40 41 42 43 44 45 46 47 48 49 50
000
ASUS43 KBIS 192202
RWRND

NORTH DAKOTA REGIONAL WEATHER ROUNDUP
NATIONAL WEATHER SERVICE BISMARCK ND
400 PM CST THU JAN 19 2017

NOTE: "FAIR" INDICATES FEW OR NO CLOUDS BELOW 12,000 FEET WITH NO
SIGNIFICANT WEATHER AND/OR OBSTRUCTIONS TO VISIBILITY.


NDZ001>003-009>011-017-192300-
NORTHWEST NORTH DAKOTA

CITY           SKY/WX    TMP DP  RH WIND       PRES   REMARKS
WILLISTON      FAIR      32  21  64 W5        29.43F
MINOT          FAIR      35  29  78 CALM      29.43S
MINOT AFB      CLOUDY    35  29  78 SW3       29.42S
$$

NDZ018>021-031>035-040>046-192300-
SOUTHWEST NORTH DAKOTA

CITY           SKY/WX    TMP DP  RH WIND       PRES   REMARKS
BISMARCK       FAIR      24  20  84 SE8       29.48R WCI  15
DICKINSON      FAIR      33  25  72 W14       29.41R
GARRISON         N/A     26  21  81 SE5       29.43S
HETTINGER ARPT CLOUDY    31  25  78 W8        29.45R
$$

NDZ004>008-012>016-024-026-027-054-192300-
NORTHEAST NORTH DAKOTA

CITY           SKY/WX    TMP DP  RH WIND       PRES   REMARKS
GRAND FORKS    CLOUDY    31  28  89 S16       29.56R FOG     WCI  20
GRND FRKS AFB  CLOUDY    30  28  93 S17       29.55R WCI  18
DEVILS LAKE    FAIR      32  25  75 CALM      29.49R
$$

NDZ022-023-025-028>030-036>039-047>053-192300-
SOUTHEAST NORTH DAKOTA

CITY           SKY/WX    TMP DP  RH WIND       PRES   REMARKS
FARGO          CLEAR     39  34  82 S15       29.58S
JAMESTOWN      FOG       26  25  96 S13       29.51R VSB 1/4 WCI  15
$$




USA.gov is the U.S. government's official web portal to all federal, state and local government web resources and services.